{"data":{"norad_id":61926,"intl_designator":"2024-207Q","name":"STARLINK-32624","alt_names":[],"object_type":"PAYLOAD","status":"ACTIVE","operator":null,"country":"US","launch_date":"2024-11-11","launch_site_code":"AFETR","launch_vehicle":null,"mission":null,"orbit_class":"UNKNOWN","rcs_meters":null,"size_class":null,"mass_kg":null,"dimensions":null,"purposes":["comms"],"wikipedia_slug":null,"has_3d_model":false,"image_url":null,"decayed_at":null,"tle_current":{"epoch":"2026-05-24T21:40:59.198016Z","epoch_age_seconds":94132,"freshness":"FRESH","line1":"1 61926U 24207Q   26144.90346294  .00022682  00000+0  83031-3 0  9990","line2":"2 61926  43.0006 210.8444 0001800 274.7748  85.2898 15.27615822 86384","mean_motion":15.27615822,"eccentricity":0.00018,"inclination_deg":43.0006,"raan_deg":210.8444,"arg_perigee_deg":274.7748,"mean_anomaly_deg":85.2898,"bstar":0.00083031,"rev_number":8638,"period_min":94.264538194866,"perigee_km":481.70683999069,"apogee_km":484.176828371,"semimajor_km":6861.0788341808,"source":"CELESTRAK","updated_at":"2026-05-25T13:38:19.483602Z"}}}